Other Public Products
Issued by NWS Grand Forks, ND

Home | Current Version | Previous Version | Text Only | Print | Product List | Glossary Off
Versions: 1 2 3 4 5 6 7 8 9 10 11 12 13 14 15 16 17 18 19 20 21 22 23 24 25 26 27 28 29 30 31 32 33 34 35 36 37 38 39 40 41 42 43 44 45 46 47 48 49 50

000
FPUS83 KFGF 291810
OPUFGF
PRAIRIE TO PINES WEATHER ROUNDUP
NATIONAL WEATHER SERVICE EASTERN NORTH DAKOTA/GRAND FORKS ND
100 PM CDT FRI AUG 29 2014

 **SATELLITE DATA USED TO AUGMENT SKY COVER AT AUTOMATED STATIONS**
 *****  WEATHER ACROSS EASTERN NORTH DAKOTA  *****

CITY           SKY/WX    TMP DP  RH WIND       PRES   REMARKS
GRAND FORKS    DRIZZLE   67  65  93 S5        29.76S FOG
6HR MIN TEMP:  65; 6HR MAX TEMP:  68; 6HR PCP: TRACE;

GRAND FORKS AF CLOUDY    68  68 100 S3        29.77S
GRAND CITY NWS   N/A     70 N/A N/A SW5         N/A
BUXTON         NOT AVBL
DEVILS LAKE    CLOUDY    66  57  72 N20G26    29.79R
6HR MIN TEMP:  66; 6HR MAX TEMP:  72;

FARGO          CLOUDY    70  64  81 W7        29.77R
6HR MIN TEMP:  66; 6HR MAX TEMP:  70;

WAHPETON ARPT  CLOUDY    68  63  83 S3        29.77F
$$

 *****  WEATHER ACROSS CENTRAL AND WESTERN NORTH DAKOTA  *****

CITY           SKY/WX    TMP DP  RH WIND       PRES   REMARKS
JAMESTOWN      CLOUDY    73  63  70 NW14      29.79S
6HR MIN TEMP:  63; 6HR MAX TEMP:  74;

BISMARCK       PTSUNNY   68  61  78 N13       29.87F
6HR MIN TEMP:  64; 6HR MAX TEMP:  75; 6HR PCP: TRACE;

MINOT          CLOUDY    67  55  65 NW14G22   29.92R
6HR MIN TEMP:  60; 6HR MAX TEMP:  67;

MINOT AFB      CLOUDY    64  55  72 N15       29.92S
6HR MIN TEMP:  58; 6HR MAX TEMP:  66;

GARRISON         N/A     66  59  78 N15G21    29.91R
6HR MIN TEMP:  59; 6HR MAX TEMP:  66;

WILLISTON      CLOUDY    69  54  58 N9        29.98F
6HR MIN TEMP:  59; 6HR MAX TEMP:  69;

DICKINSON      CLOUDY    62  56  80 N13       29.97R
6HR MIN TEMP:  59; 6HR MAX TEMP:  64; 6HR PCP:  0.02;

HETTINGER      MOSUNNY   68  56  65 NW21G30   29.97S
6HR MIN TEMP:  60; 6HR MAX TEMP:  69; 6HR PCP: TRACE;

$$

 *****  OTHER OBSERVATIONS NORTHEAST NORTH DAKOTA  *****

CITY           SKY/WX    TMP DP  RH WIND       PRES   REMARKS
WALHALLA         N/A     63  63 100 N18       29.80R
LANGDON        CLOUDY    59  57  94 N20G28    29.82R
CAVALIER       LGT RAIN  66  64  94 N14G20    29.78R
GRAFTON        CLOUDY    68  66  94 W3        29.76S
CANDO          CLOUDY    61  57  88 N18G30    29.85R
FORT TOTTEN    NOT AVBL
ROLLA          CLOUDY    59  55  88 N22G29    29.90R
RUGBY          CLOUDY    63  55  77 NE20G28   29.88R
 ***** THE ABOVE OBSERVATIONS ARE NON NWS ARE NOT QUALITY
        CONTROLLED AND MAY MIS-REPORT RAIN FOR SNOW...
$$

 *****  OTHER OBSERVATIONS SOUTHEAST NORTH DAKOTA *****

CITY           SKY/WX    TMP DP  RH WIND       PRES   REMARKS
COOPERSTOWN    NOT AVBL
VALLEY CITY    CLOUDY    72  68  88 NW7       29.78F
OAKES            N/A     72  70  94 W5        29.80S
GWINNER        CLOUDY    70  70 100 W8        29.81R
SHEYENNE NWR     N/A     70  66  87 W5        29.95S
BUFFALO        NOT AVBL
WYNDMERE       NOT AVBL
 ***** THE ABOVE OBSERVATIONS ARE NON NWS ARE NOT QUALITY
       CONTROLLED AND MAY MIS-REPORT RAIN FOR SNOW...
$$

  *****  WEATHER ACROSS NORTHERN MINNESOTA  *****

CITY           SKY/WX    TMP DP  RH WIND       PRES   REMARKS
FLAG ISLAND    CLOUDY    66  64  94 S6        29.76S
WARROAD        CLOUDY    70  64  83 SW3       29.76S
ROSEAU         MOSUNNY   70  63  78 SW6       29.76S
HALLOCK        CLOUDY    68  64  88 CALM      29.76S FOG
THF RVR FALLS  CLOUDY    72  64  78 S3        29.75F
6HR MIN TEMP:  63; 6HR MAX TEMP:  72; 6HR PCP:  0.02;

HALSTAD          N/A     68  63  82 W5          N/A
FOSSTON        CLOUDY    70  63  78 S3        29.77F
BAUDETTE       CLOUDY    67  63  87 SE6       29.76F
6HR MIN TEMP:  63; 6HR MAX TEMP:  67; 6HR PCP: TRACE;

WASKISH        CLOUDY    66  64  94 CALM      29.77F FOG
CROOKSTON      CLOUDY    70  64  83 SW7       29.77S
$$
  *****  WEATHER ACROSS CENTRAL AND WEST MINNESOTA  *****

CITY           SKY/WX    TMP DP  RH WIND       PRES   REMARKS
BEMIDJI        CLOUDY    67  64  89 S3        29.77F
PARK RAPIDS    CLOUDY    66  64  93 SW3       29.78S
6HR MIN TEMP:  63; 6HR MAX TEMP:  67; 6HR PCP:  0.02;

WADENA         CLOUDY    68  64  88 CALM      29.78S
DETROIT LAKES  CLOUDY    68  64  88 S3        29.80R
MOORHEAD       CLOUDY    70  68  94 W3        29.78S
FERGUS FALLS   CLOUDY    68  64  88 CALM      29.78S
ELBOW LAKE     LGT RAIN  68  66  92 W5        29.78S
6HR MIN TEMP:  64; 6HR MAX TEMP:  68; 6HR PCP:  0.03;

MORRIS MN      CLOUDY    72  68  88 N3        29.77S
STAPLES        CLOUDY    66  64  94 CALM      29.78F
WHEATON        CLOUDY    70  64  83 CALM      29.80S
$$
  *****  WEATHER ELSEWHERE ACROSS MINNESOTA  *****

CITY           SKY/WX    TMP DP  RH WIND       PRES   REMARKS
DULUTH         LGT RAIN  64  61  90 N3        29.79S
6HR MIN TEMP:  61; 6HR MAX TEMP:  64; 6HR PCP:  0.22;

INTRNTL FALLS  CLOUDY    67  61  81 S6        29.78F
6HR MIN TEMP:  60; 6HR MAX TEMP:  68; 6HR PCP:  0.01;

ELY            CLOUDY    61  59  94 E5        29.81F
CLOQUET        RAIN      63  61  94 CALM      29.79S
BRAINERD       CLOUDY    67  65  93 N3        29.78S
6HR MIN TEMP:  63; 6HR MAX TEMP:  67;

HIBBING        CLOUDY    65  60  84 CALM      29.79F
6HR MIN TEMP:  61; 6HR MAX TEMP:  65; 6HR PCP:  0.29;

ALEXANDRIA     CLOUDY    70  65  84 CALM      29.79F
6HR MIN TEMP:  64; 6HR MAX TEMP:  70; 6HR PCP:  0.39;

SAINT CLOUD    HVY RAIN  71  68  90 SE3       29.77F FOG
6HR MIN TEMP:  68; 6HR MAX TEMP:  72; 6HR PCP:  0.34;

MINNEAPOLIS    CLOUDY    76  68  76 SW7       29.79S
6HR MIN TEMP:  69; 6HR MAX TEMP:  77; 6HR PCP:  0.01;

$$

  *****  WEATHER ACROSS SOUTH DAKOTA  *****

CITY           SKY/WX    TMP DP  RH WIND       PRES   REMARKS
SIOUX FALLS    CLOUDY    74  69  85 S7        29.80F
6HR MIN TEMP:  68; 6HR MAX TEMP:  75;

BROOKINGS      NOT AVBL
WATERTOWN      CLOUDY    70  65  84 CALM      29.81S
6HR MIN TEMP:  65; 6HR MAX TEMP:  70;

HURON          PTSUNNY   75  66  73 W5        29.80F
6HR MIN TEMP:  67; 6HR MAX TEMP:  78;

SISSETON         N/A     73  67  81 SW3       29.78S
ABERDEEN       PTSUNNY   72  67  84 S5        29.80S
6HR MIN TEMP:  64; 6HR MAX TEMP:  72;

MITCHELL       PTSUNNY   76  69  79 NW10      29.81F
PIERRE         MOSUNNY   77  66  68 N20G25    29.84R
6HR MIN TEMP:  65; 6HR MAX TEMP:  77;

MOBRIDGE       SUNNY     76  58  53 N22G31    29.83S
RAPID CITY     PTSUNNY   71  52  50 N17G24    30.01R
6HR MIN TEMP:  58; 6HR MAX TEMP:  72; 6HR PCP: TRACE;

$$

  *****  SOME WEATHER IN NEARBY STATES *****

CITY           SKY/WX    TMP DP  RH WIND       PRES   REMARKS
GLASGOW MT     CLOUDY    66  52  60 CALM      30.04F
6HR MIN TEMP:  55; 6HR MAX TEMP:  66;

GREAT FALLS MT SUNNY     69  49  48 S6        30.00F
6HR MIN TEMP:  48; 6HR MAX TEMP:  69;

CHEYENNE WY    MOSUNNY   69  45  41 N14G21    30.17F
6HR MIN TEMP:  48; 6HR MAX TEMP:  70;

SCOTTSBLUFF NE MOSUNNY   79  54  41 N20       30.04R
6HR MIN TEMP:  50; 6HR MAX TEMP:  79; 6HR PCP: TRACE;

OMAHA NE       LGT RAIN  73  68  84 S5        29.82F
6HR MIN TEMP:  71; 6HR MAX TEMP:  74; 6HR PCP:  0.04;

DES MOINES IA  PTSUNNY   84  71  65 SW12      29.81F
6HR MIN TEMP:  69; 6HR MAX TEMP:  85;

DAVENPORT IA   SUNNY     84  73  69 S14G20    29.89F HX  90
6HR MIN TEMP:  68; 6HR MAX TEMP:  84;

CHICAGO IL     PTSUNNY   84  69  60 SW12      29.95F
6HR MIN TEMP:  71; 6HR MAX TEMP:  84;

EAU CLAIRE WI  PTSUNNY   76  69  79 S9        29.81F
6HR MIN TEMP:  62; 6HR MAX TEMP:  76; 6HR PCP: TRACE;

LA CROSSE WI   SUNNY     82  70  66 S13       29.82F
6HR MIN TEMP:  66; 6HR MAX TEMP:  82;

$$

  *****  SOME NATIONAL WEATHER *****

CITY           SKY/WX    TMP DP  RH WIND       PRES   REMARKS


USA.gov is the U.S. government's official web portal to all federal, state and local government web resources and services.